FW9987 Weather Reports


Display with metric or nautical units.
time (UTC)temp
F
wind
direction
speed
MPH
gust
MPH
rain 1hr
in
rain 24hr
in
rain mn
in
humidity
%
barometer
mb
20260906220104 76 194 6.0 20.0 0.00 0.00 0.00 31 1028.0
20260906214558 76 172 4.0 19.0 0.00 0.00 0.00 30 1028.3
20260906213057 76 179 5.0 20.0 0.00 0.00 0.00 30 1028.6
20260906211554 76 157 11.0 19.0 0.00 0.00 0.00 27 1028.5
20260906210106 76 153 11.0 21.0 0.00 0.00 0.00 28 1028.6
20260906204602 75 160 9.0 18.0 0.00 0.00 0.00 28 1028.8
20260906203059 75 169 5.0 21.0 0.00 0.00 0.00 29 1028.8
20260906201552 74 151 9.0 20.0 0.00 0.00 0.00 31 1028.8
20260906194556 75 237 6.0 14.0 0.00 0.00 0.00 30 1029.1
20260906193101 75 169 8.0 21.0 0.00 0.00 0.00 29 1029.4
20260906191552 74 163 7.0 16.0 0.00 0.00 0.00 30 1029.6
20260906190058 74 194 5.0 13.0 0.00 0.00 0.00 30 1029.5
20260906184606 73 0 5.0 18.0 0.00 0.00 0.00 30 1029.8
20260906183054 73 219 3.0 11.0 0.00 0.00 0.00 34 1030.0
20260906181602 72 40 4.0 15.0 0.00 0.00 0.00 35 1030.2
20260906180105 72 180 7.0 13.0 0.00 0.00 0.00 36 1030.4
20260906174551 72 189 6.0 10.0 0.00 0.00 0.00 36 1030.6
20260906173105 71 182 6.0 11.0 0.00 0.00 0.00 37 1031.0
20260906171603 71 196 4.0 10.0 0.00 0.00 0.00 37 1031.1
20260906170120 70 113 5.0 12.0 0.00 0.00 0.00 38 1031.4
20260906164552 69 227 5.0 12.0 0.00 0.00 0.00 39 1031.3
20260906163115 69 164 4.0 10.0 0.00 0.00 0.00 42 1031.2
20260906161558 68 184 3.0 8.0 0.00 0.00 0.00 43 1031.2
20260906160059 68 98 4.0 10.0 0.00 0.00 0.00 43 1031.1
20260906154553 68 299 2.0 7.0 0.00 0.00 0.00 42 1030.9
20260906153059 67 278 1.0 5.0 0.00 0.00 0.00 45 1030.9
20260906151600 66 156 3.0 7.0 0.00 0.00 0.00 49 1031.0
20260906150106 66 190 3.0 5.0 0.00 0.00 0.00 50 1030.9
20260906144551 65 166 1.0 4.0 0.00 0.00 0.00 52 1030.7
20260906143059 65 0 0.0 0.0 0.00 0.00 0.00 53 1030.7
20260906141553 64 0 0.0 2.0 0.00 0.00 0.00 56 1030.7
20260906140059 61 0 0.0 5.0 0.00 0.00 0.00 61 1030.6
20260906134558 58 34 4.0 6.0 0.00 0.00 0.00 62 1030.6
20260906133117 56 0 0.0 1.0 0.00 0.00 0.00 66 1030.4
20260906131556 55 0 0.0 1.0 0.00 0.00 0.00 64 1030.3
20260906130107 57 25 0.0 2.0 0.00 0.00 0.00 61 1030.2
20260906124603 56 0 0.0 3.0 0.00 0.00 0.00 62 1030.3
20260906123054 55 25 0.0 3.0 0.00 0.00 0.00 64 1030.3
20260906121549 52 0 0.0 2.0 0.00 0.00 0.00 70 1030.3
20260906120101 52 0 0.0 2.0 0.00 0.00 0.00 70 1030.3
20260906114555 52 0 0.0 2.0 0.00 0.00 0.00 70 1030.3
20260906113055 52 0 0.0 2.0 0.00 0.00 0.00 69 1030.6
20260906111613 55 25 0.0 4.0 0.00 0.00 0.00 63 1030.3
20260906110059 57 25 2.0 6.0 0.00 0.00 0.00 62 1030.1
20260906104557 57 36 5.0 8.0 0.00 0.00 0.00 62 1030.1
20260906103056 57 33 3.0 5.0 0.00 0.00 0.00 61 1030.0
20260906101553 58 19 3.0 5.0 0.00 0.00 0.00 60 1030.1
20260906100057 58 25 4.0 7.0 0.00 0.00 0.00 59 1030.1
20260906094556 58 21 3.0 5.0 0.00 0.00 0.00 58 1030.3
20260906093103 57 45 3.0 7.0 0.00 0.00 0.00 59 1030.4
20260906091558 58 15 4.0 7.0 0.00 0.00 0.00 57 1030.3
20260906084602 58 31 4.0 6.0 0.00 0.00 0.00 59 1030.1
20260906083100 57 38 3.0 6.0 0.00 0.00 0.00 60 1030.2
20260906081558 58 22 4.0 6.0 0.00 0.00 0.00 59 1030.3
20260906074554 59 17 5.0 9.0 0.00 0.00 0.00 56 1030.3
20260906073057 59 360 7.0 10.0 0.00 0.00 0.00 56 1030.3
20260906071554 60 62 3.0 5.0 0.00 0.00 0.00 54 1030.3
20260906070044 60 5 2.0 4.0 0.00 0.00 0.00 54 1030.3
20260906064554 61 19 3.0 7.0 0.00 0.00 0.00 53 1030.3
20260906063054 61 107 4.0 6.0 0.00 0.00 0.00 53 1030.3
20260906061558 60 26 4.0 6.0 0.00 0.00 0.00 54 1030.3
20260906060052 60 56 5.0 9.0 0.00 0.00 0.00 54 1030.4
20260906054601 62 24 5.0 8.0 0.00 0.00 0.00 52 1030.5
20260906053100 62 0 0.0 6.0 0.00 0.00 0.00 50 1030.4
20260906051610 64 91 2.0 7.0 0.00 0.00 0.00 48 1030.4
20260906050053 64 117 2.0 8.0 0.00 0.00 0.00 48 1030.5
20260906044607 63 95 5.0 11.0 0.00 0.00 0.00 49 1030.5
20260906043053 63 0 0.0 3.0 0.00 0.00 0.00 50 1030.5
20260906041601 63 0 0.0 9.0 0.00 0.00 0.00 49 1030.6
20260906040137 65 0 2.0 7.0 0.00 0.00 0.00 47 1030.6
20260906034605 65 111 5.0 7.0 0.00 0.00 0.00 46 1030.7
20260906033108 65 135 4.0 11.0 0.00 0.00 0.00 46 1030.7
20260906031556 66 103 7.0 13.0 0.00 0.00 0.00 45 1030.6
20260906030100 66 141 3.0 13.0 0.00 0.00 0.00 45 1030.4
20260906024614 65 124 1.0 6.0 0.00 0.00 0.00 47 1030.3
20260906023102 66 101 2.0 8.0 0.00 0.00 0.00 45 1030.1
20260906021558 66 68 2.0 8.0 0.00 0.00 0.00 45 1029.8
20260906014551 66 121 4.0 11.0 0.00 0.00 0.00 45 1029.4
20260906013102 67 84 4.0 11.0 0.00 0.00 0.00 45 1029.5
20260906011555 67 98 5.0 10.0 0.00 0.00 0.00 45 1029.4
20260906010055 67 74 5.0 10.0 0.00 0.00 0.00 45 1029.4
20260906004600 68 98 5.0 9.0 0.00 0.00 0.00 45 1029.5
20260906003059 69 95 9.0 15.0 0.00 0.00 0.00 43 1029.3
20260906001559 70 86 7.0 15.0 0.00 0.00 0.00 42 1029.3
20260906000057 71 90 5.0 15.0 0.00 0.00 0.00 40 1029.1
20260905234601 72 78 5.0 10.0 0.00 0.00 0.00 40 1029.2
20260905233101 71 88 6.0 15.0 0.00 0.00 0.00 39 1029.2
20260905231554 73 90 7.0 17.0 0.00 0.00 0.00 38 1029.0
20260905230105 73 113 7.0 18.0 0.00 0.00 0.00 35 1029.1
20260905224614 72 173 8.0 18.0 0.00 0.00 0.00 39 1029.1
20260905223106 73 173 4.0 23.0 0.00 0.00 0.00 36 1029.0
20260905221550 74 211 2.0 8.0 0.00 0.00 0.00 30 1028.9